ヴォルフ-ハリントン彗星

43P/Wolf-Harrington (2010)

English version
Home page
Total 6,336 html files since Dec. 4, 1995
Updated on October 3, 2005

---------------------------------------------------------------------

・ プロフィール

・ 軌道要素

Perturbed ephemeris below is based on elements from MPC 50140. 

 Epoch = 2455360.50000 TT   T = 2455379.24703 TT
 Peri. =  191.46950         a =     3.3476238 AU
 Node  =  249.89547 J2000.0 e =     0.5944507
 Incl. =   15.96659         q =     1.3576263 AU

・ 星図

・ 光度変化

        m1 = 7.2 + 5 logΔ + 19.5 log r

---------------------------------------------------------------------

軌道要素はMinor Planet & Comet Ephemeris Serviceで計算したものです。
星図は StellaNavigator Ver.2.0 for Windows (アストロアーツ 編著 / アスキー出版局刊) で作成したものです。
光度グラフはComet for Windowsで作成したものです。

---------------------------------------------------------------------

Copyright(C) 1995-2008 Seiichi Yoshida (comet@aerith.net). All rights reserved.